TimeCDT,TemperatureF,Dew PointF,Humidity,Sea Level PressureIn,VisibilityMPH,Wind Direction,Wind SpeedMPH,Gust SpeedMPH,PrecipitationIn,Events,Conditions,WindDirDegrees,DateUTC
12:53 AM,73.0,69.1,87,29.95,10.0,South,12.7,-,N/A,,Clear,180,2013-09-18 05:53:00
1:53 AM,73.0,68.0,84,29.94,10.0,South,12.7,-,N/A,,Clear,190,2013-09-18 06:53:00
2:53 AM,72.0,68.0,87,29.93,10.0,South,9.2,-,N/A,,Overcast,180,2013-09-18 07:53:00
3:53 AM,73.0,66.0,79,29.92,10.0,South,10.4,-,N/A,,Clear,190,2013-09-18 08:53:00
4:53 AM,71.1,66.0,84,29.91,10.0,South,8.1,-,N/A,,Clear,170,2013-09-18 09:53:00
5:53 AM,70.0,66.0,87,29.92,10.0,South,8.1,-,N/A,,Clear,170,2013-09-18 10:53:00
6:53 AM,71.1,66.0,84,29.92,10.0,South,9.2,-,N/A,,Clear,170,2013-09-18 11:53:00
7:53 AM,72.0,66.0,81,29.94,10.0,South,11.5,-,N/A,,Clear,180,2013-09-18 12:53:00
8:53 AM,73.9,66.9,79,29.94,10.0,South,13.8,-,N/A,,Clear,190,2013-09-18 13:53:00
9:53 AM,75.9,68.0,76,29.95,10.0,South,13.8,-,N/A,,Clear,190,2013-09-18 14:53:00
10:53 AM,82.0,68.0,62,29.95,10.0,SSW,16.1,25.3,N/A,,Clear,200,2013-09-18 15:53:00
11:53 AM,84.9,64.9,51,29.93,10.0,SSW,24.2,32.2,N/A,,Clear,210,2013-09-18 16:53:00
12:53 PM,87.1,64.0,46,29.91,10.0,SSW,26.5,31.1,N/A,,Clear,210,2013-09-18 17:53:00
1:53 PM,89.1,60.1,38,29.89,10.0,South,27.6,35.7,N/A,,Clear,190,2013-09-18 18:53:00
2:53 PM,90.0,61.0,38,29.87,10.0,SSW,21.9,34.5,N/A,,Clear,200,2013-09-18 19:53:00
3:53 PM,91.0,57.9,33,29.84,10.0,South,26.5,33.4,N/A,,Clear,190,2013-09-18 20:53:00
4:53 PM,91.0,59.0,34,29.83,10.0,South,23.0,-,N/A,,Clear,190,2013-09-18 21:53:00
5:53 PM,90.0,57.0,33,29.82,10.0,South,23.0,32.2,N/A,,Clear,190,2013-09-18 22:53:00
6:53 PM,88.0,55.9,34,29.82,10.0,South,17.3,-,N/A,,Clear,190,2013-09-18 23:53:00
7:53 PM,82.9,60.1,46,29.83,10.0,South,10.4,-,N/A,,Clear,180,2013-09-19 00:53:00
8:53 PM,80.1,60.1,50,29.85,10.0,South,10.4,-,N/A,,Clear,170,2013-09-19 01:53:00
9:53 PM,79.0,62.1,56,29.85,10.0,SSE,11.5,-,N/A,,Clear,160,2013-09-19 02:53:00
10:53 PM,80.1,59.0,48,29.85,10.0,South,13.8,-,N/A,,Clear,180,2013-09-19 03:53:00
11:53 PM,75.0,60.1,60,29.86,10.0,SSE,12.7,-,N/A,,Clear,150,2013-09-19 04:53:00